This is the latest recevied weather packets stored in our database for station/object KG7KID-5. If no packets are shown the sender has not sent any weather packets the latest 10 day(s).
| Time | Temp. | Humidity | Pressure | Rain* | Wind** | Luminosity | Snow |
|---|---|---|---|---|---|---|---|
| 1778171641 | 22.78° C | 17% | 931.6 hPa | 0 mm | - | - | - |
| 1778171340 | 22.78° C | 17% | 931.6 hPa | 0 mm | - | - | - |
| 1778171040 | 22.78° C | 17% | 931.7 hPa | 0 mm | - | - | - |
| 1778170740 | 22.22° C | 17% | 931.7 hPa | 0 mm | - | - | - |
| 1778170441 | 22.22° C | 17% | 931.8 hPa | 0 mm | - | - | - |
| 1778170141 | 22.22° C | 18% | 931.9 hPa | 0 mm | - | - | - |
| 1778169841 | 22.22° C | 18% | 932 hPa | 0 mm | - | - | - |
| 1778169541 | 21.67° C | 18% | 932.1 hPa | 0 mm | - | - | - |
| 1778169241 | 22.22° C | 18% | 932.2 hPa | 0 mm | - | - | - |
| 1778168641 | 21.67° C | 18% | 932.4 hPa | 0 mm | - | - | - |
| 1778168341 | 21.11° C | 19% | 932.4 hPa | 0 mm | - | - | - |
| 1778167740 | 20.56° C | 22% | 932.5 hPa | 0 mm | - | - | - |
| 1778167442 | 20.56° C | 22% | 932.7 hPa | 0 mm | - | - | - |
| 1778166840 | 20° C | 23% | 932.8 hPa | 0 mm | - | - | - |
| 1778166541 | 19.44° C | 24% | 932.9 hPa | 0 mm | - | - | - |
| 1778165404 | 18.33° C | 27% | 933.1 hPa | 0 mm | - | - | - |
| 1778165104 | 18.33° C | 27% | 933.3 hPa | 0 mm | - | - | - |
| 1778164804 | 17.78° C | 30% | 933.3 hPa | 0 mm | - | - | - |
| 1778164505 | 17.78° C | 32% | 933.4 hPa | 0 mm | - | - | - |
| 1778163905 | 16.11° C | 32% | 933.6 hPa | 0 mm | - | - | - |
| 1778163605 | 15.56° C | 33% | 933.6 hPa | 0 mm | - | - | - |
| 1778162708 | 15° C | 38% | 913.8 hPa | 0 mm | - | - | - |
| 1778162704 | 15° C | 38% | 933.8 hPa | 0 mm | - | - | - |
| 1778162341 | 14.44° C | 38% | 933.8 hPa | 0 mm | - | - | - |
| 1778161742 | 12.78° C | 40% | 933.8 hPa | 0 mm | - | - | - |
* Rain latest hour (hover to see other rain measurements)
** Current wind speed in m/s (hover to see current wind gust speed)